Wind_Speed
11 11 11 12 12 12 11 12 12 13 13 12 12 13 12 12 12 12 12 13 13 13 14 14 15 16 16 16 16 17 17 18 19 20 21 21 21 23 24 24 25 25 25
13 14 14 13 13 13 13 13 13 14 14 14 14 14 14 13 13 13 13 13 14 15 15 15 16 16 16 16 17 17 18 18 19 20 21 22 22 23 23 23 24 25 26
14 15 15 15 15 16 15 14 14 14 14 15 14 15 15 15 14 14 14 14 15 15 16 16 17 17 17 18 18 18 18 19 20 20 21 22 22 22 22 23 24 25 26
15 16 16 16 16 15 15 15 15 15 15 15 15 15 15 15 15 15 15 15 15 16 17 17 17 18 19 19 19 19 19 19 20 20 21 22 22 21 22 23 24 25 26
17 17 17 18 17 16 16 16 16 16 16 16 16 17 16 16 17 16 15 15 16 17 17 17 18 18 19 19 19 20 20 21 20 20 20 21 21 22 22 22 23 24 25
18 18 18 19 18 17 16 17 18 18 18 17 18 18 18 18 18 17 17 17 17 17 18 18 18 18 18 19 19 19 19 19 20 20 21 21 22 21 21 22 23 24 24
19 19 19 19 18 17 17 18 19 19 19 19 19 19 19 19 18 18 18 18 18 18 19 18 18 19 19 19 20 20 19 19 19 19 20 21 21 22 22 23 24 25 25
21 21 21 21 20 19 19 19 20 20 20 20 20 21 21 20 20 19 19 19 19 19 19 19 19 19 19 20 20 20 19 19 19 20 21 21 22 22 22 23 24 25 26
22 21 21 21 21 20 20 21 20 21 21 20 21 20 20 20 20 19 19 19 19 19 19 19 19 20 20 20 20 20 20 20 20 21 21 22 22 23 23 24 25 26 27
21 21 21 21 21 21 21 21 21 22 22 21 21 21 20 20 20 20 20 20 20 20 20 20 20 20 20 20 20 20 20 20 21 22 22 23 24 24 25 25 26 27 28
23 23 23 22 22 22 22 22 22 23 24 23 23 22 22 22 21 21 21 21 21 21 21 21 20 20 20 21 20 20 21 22 22 23 24 25 25 26 27 27 28 28 29
25 24 24 24 24 24 24 25 25 25 25 25 24 24 23 23 22 22 22 22 22 21 21 21 21 21 21 21 22 22 22 23 23 24 24 25 26 27 27 28 29 29 30
26 26 25 26 26 27 26 26 27 26 26 26 25 24 24 23 23 23 24 24 23 23 22 22 22 23 23 22 22 23 23 23 23 24 25 26 27 27 28 29 29 30 31
28 27 26 27 27 28 28 28 28 27 26 26 25 25 25 24 25 25 25 25 25 24 24 24 23 23 23 23 23 23 23 23 24 25 26 26 27 28 29 29 30 30 31
29 30 28 28 28 29 29 28 28 27 26 25 25 25 25 25 26 26 26 25 25 24 25 25 23 23 23 23 23 24 24 25 25 26 27 28 28 29 29 30 30 31 31
30 31 31 29 29 29 28 28 28 28 27 27 26 26 26 26 26 26 26 26 25 25 25 24 23 23 24 24 24 25 25 26 27 27 28 28 29 30 30 31 31 32 32
32 33 33 31 30 29 29 28 28 28 29 28 28 27 26 26 26 26 26 26 26 25 24 24 24 24 25 25 25 26 26 27 28 28 28 29 30 30 30 31 31 31 31
33 33 33 32 32 30 29 28 29 29 29 29 28 26 26 26 26 27 27 27 26 25 24 24 25 25 26 26 27 27 27 27 28 28 29 30 30 31 31 31 31 31 32
34 33 32 32 32 30 29 29 29 29 29 28 28 27 26 27 27 26 26 24 24 24 25 25 25 26 26 27 27 27 27 28 28 29 29 30 31 31 31 31 31 31 32
32 32 32 31 31 30 29 29 29 29 29 29 28 28 27 27 27 26 26 25 25 26 26 26 27 27 27 27 27 28 28 29 29 30 30 30 30 30 30 30 30 30 31
30 30 31 31 30 29 29 29 29 29 29 29 28 28 27 26 27 27 26 26 26 27 28 28 28 29 28 28 29 29 29 29 29 30 30 30 30 30 30 30 30 31 31
30 30 30 29 29 29 29 29 28 28 28 28 27 26 26 26 26 26 26 26 27 27 28 29 28 29 29 29 29 29 29 30 30 30 30 30 29 30 30 30 30 31 31
30 30 30 30 29 29 29 29 28 28 28 27 27 26 26 27 26 26 26 27 27 28 28 27 28 29 29 29 30 30 29 30 30 29 29 29 29 29 29 30 30 30 30
30 30 29 29 28 28 28 29 29 28 28 27 26 26 27 27 27 27 27 28 28 27 27 28 28 28 29 30 30 29 29 29 29 28 28 28 29 29 30 30 30 30 29
28 28 28 27 28 27 27 28 28 28 27 27 26 27 27 28 28 28 28 28 28 28 28 28 28 28 29 29 29 29 29 29 29 29 29 29 29 30 30 30 30 30 29
28 28 27 27 27 27 27 28 28 28 27 26 27 28 28 28 28 28 28 28 28 28 28 29 29 29 30 29 29 29 30 30 30 29 29 29 29 29 29 29 29 29 29
Wind_Direction
345 346 344 340 340 337 336 339 340 341 338 334 334 333 327 320 317 314 310 304 303 301 298 295 294 292 292 291 288 287 285 283 282 281 280 278 276 277 276 275 274 274 275
341 341 335 334 337 340 332 332 335 335 335 331 329 328 326 322 317 315 312 307 304 303 299 298 297 295 295 294 293 290 288 285 283 281 280 279 279 278 277 275 275 277 275
334 334 330 328 327 331 331 329 331 330 329 328 327 326 323 321 317 313 311 309 308 305 302 301 301 298 296 293 293 294 293 288 284 283 283 283 282 279 277 277 276 276 275
324 325 326 328 327 327 326 324 326 327 327 325 325 325 324 323 321 313 305 306 306 305 305 305 303 300 298 294 294 294 293 292 289 287 287 285 283 282 281 280 280 280 280
317 319 321 323 323 322 322 322 321 322 324 322 322 322 321 320 320 316 311 308 306 306 304 302 301 301 299 296 294 294 293 292 290 290 290 289 288 286 285 283 284 284 284
315 315 318 320 321 322 322 320 320 319 320 319 318 319 319 319 319 316 312 310 307 305 305 303 301 300 300 300 299 297 296 296 293 290 290 290 289 287 286 286 286 286 286
309 311 313 316 316 317 319 318 318 317 316 315 315 316 317 317 316 316 314 313 312 308 307 304 302 303 302 301 301 300 299 298 298 296 294 293 292 291 289 288 288 289 288
303 305 309 313 313 312 311 312 313 314 315 314 314 314 314 315 313 313 312 313 312 309 307 306 305 305 304 303 302 300 297 296 295 295 295 296 296 295 294 293 292 291 291
299 302 306 308 308 307 309 309 309 313 315 313 312 311 313 314 313 313 312 311 311 310 308 306 305 305 305 303 301 300 297 295 294 295 295 296 296 296 294 293 292 292 292
299 301 302 304 302 302 303 306 307 309 312 314 313 312 312 312 311 311 311 310 308 308 306 305 305 305 305 303 301 299 298 296 295 296 297 297 297 296 294 294 294 293 292
294 297 299 300 300 301 301 303 305 307 308 310 311 311 309 310 311 309 309 308 307 306 305 305 305 305 304 304 303 301 300 298 297 296 297 298 298 298 296 295 295 294 293
289 291 294 298 299 300 299 301 303 303 304 305 306 306 307 306 307 307 306 305 304 305 304 303 302 302 303 302 302 302 300 299 298 298 299 300 300 299 298 296 295 295 294
287 290 294 296 297 298 298 298 299 300 300 302 302 302 304 303 302 303 303 303 303 301 301 300 300 300 301 301 302 302 301 301 301 301 300 299 299 299 299 297 296 296 295
285 286 289 292 294 295 296 297 298 298 299 299 299 299 300 301 301 301 301 301 301 300 299 299 300 301 301 301 302 303 303 303 302 301 301 300 300 299 298 297 297 298 297
284 286 286 290 292 293 294 296 297 298 298 298 297 297 298 299 299 299 299 299 300 299 299 299 299 301 301 302 302 302 303 303 301 301 301 301 301 300 299 297 297 297 297
283 286 286 287 289 290 292 293 295 295 296 297 296 295 295 296 296 297 299 299 298 297 299 299 300 302 302 301 301 301 301 302 302 302 302 302 301 301 300 299 299 299 299
283 285 286 287 287 288 288 289 291 292 293 294 294 293 293 294 295 297 298 297 295 295 297 299 300 300 300 300 300 301 302 303 303 303 303 303 302 301 301 300 300 299 299
283 284 285 286 286 285 286 287 288 290 291 291 292 292 292 294 296 297 296 296 294 293 296 298 298 298 299 299 300 301 301 302 303 303 303 303 303 302 302 301 300 299 299
281 283 283 285 285 283 284 285 287 289 290 291 289 290 292 294 295 295 295 294 293 294 296 297 296 297 298 299 299 301 301 302 303 304 305 305 305 304 303 302 301 299 298
281 282 283 284 284 282 282 284 285 286 288 288 288 288 290 292 292 292 294 293 293 294 295 296 297 298 297 298 300 301 302 303 303 304 304 305 305 304 304 303 302 300 299
280 281 283 284 283 282 282 283 284 285 286 287 287 288 288 289 290 291 291 292 293 293 294 295 296 296 296 298 299 300 302 303 304 304 303 304 304 304 305 304 303 303 303
279 281 283 284 283 283 282 283 284 285 287 287 288 289 288 288 290 290 291 291 293 293 293 294 294 295 297 298 299 300 301 303 304 304 304 304 304 304 304 305 305 305 305
278 281 282 283 283 283 283 285 285 285 285 286 286 287 286 287 288 290 290 291 292 293 293 292 293 295 297 297 299 300 301 303 303 303 303 303 304 305 306 306 306 306 306
279 281 282 283 282 282 281 282 283 284 284 284 284 285 285 285 286 287 287 287 289 291 291 292 294 296 297 298 299 300 302 303 303 304 304 305 306 306 306 306 306 305 306
279 280 281 281 281 281 280 281 282 283 283 283 283 283 283 284 285 287 287 286 287 289 290 291 293 296 297 298 299 299 301 302 304 305 304 305 306 307 306 306 305 305 306
279 280 280 280 281 283 282 281 280 280 281 281 281 282 284 284 285 286 287 288 289 289 290 291 293 295 296 297 298 299 301 302 303 303 304 305 306 307 307 308 308 307 307
Height
5892 5891 5889 5886 5884 5881 5879 5877 5875 5873 5871 5869 5867 5865 5863 5861 5859 5857 5855 5854 5852 5850 5849 5847 5846 5845 5843 5841 5840 5838 5837 5835 5834 5833 5832 5831 5829 5828 5827 5826 5825 5824 5823
5892 5890 5887 5884 5881 5878 5876 5874 5872 5870 5868 5866 5864 5862 5859 5857 5855 5853 5851 5850 5848 5847 5845 5843 5841 5840 5838 5837 5835 5833 5831 5830 5828 5827 5826 5825 5823 5822 5821 5820 5818 5817 5816
5890 5887 5885 5882 5879 5877 5874 5872 5870 5868 5865 5863 5861 5858 5855 5853 5851 5849 5847 5846 5844 5842 5840 5838 5837 5835 5834 5832 5830 5828 5826 5824 5822 5821 5820 5818 5817 5816 5814 5813 5812 5811 5809
5887 5885 5882 5879 5876 5874 5871 5870 5867 5865 5862 5860 5857 5855 5852 5850 5847 5845 5843 5841 5840 5838 5836 5834 5832 5830 5829 5827 5825 5823 5821 5819 5817 5816 5814 5812 5811 5809 5808 5807 5805 5804 5802
5884 5881 5879 5876 5873 5870 5868 5866 5864 5862 5859 5856 5854 5851 5849 5846 5844 5841 5839 5837 5835 5833 5831 5829 5827 5825 5823 5821 5819 5817 5815 5814 5812 5810 5808 5806 5804 5803 5801 5800 5799 5797 5795
5880 5878 5875 5872 5870 5867 5865 5863 5860 5858 5855 5853 5850 5848 5845 5842 5840 5837 5835 5832 5830 5828 5826 5824 5822 5820 5818 5816 5814 5812 5810 5808 5806 5804 5802 5800 5798 5796 5795 5793 5792 5791 5789
5876 5873 5870 5868 5866 5863 5861 5859 5857 5854 5851 5849 5846 5843 5841 5838 5835 5833 5830 5828 5826 5823 5821 5819 5817 5814 5812 5810 5808 5806 5804 5802 5801 5799 5797 5794 5792 5790 5789 5787 5785 5783 5782
5871 5868 5866 5864 5862 5859 5857 5855 5852 5850 5847 5844 5841 5839 5836 5833 5831 5828 5826 5823 5821 5818 5816 5814 5811 5809 5807 5805 5803 5801 5799 5797 5795 5793 5791 5789 5786 5784 5782 5780 5778 5776 5774
5865 5863 5861 5859 5857 5854 5852 5850 5847 5845 5842 5839 5837 5834 5831 5828 5826 5823 5821 5818 5816 5813 5811 5808 5806 5803 5801 5799 5797 5795 5793 5791 5788 5786 5784 5782 5780 5778 5775 5773 5771 5769 5767
5859 5857 5855 5853 5851 5849 5847 5845 5842 5840 5837 5834 5831 5829 5826 5823 5821 5818 5816 5813 5811 5808 5805 5803 5800 5798 5795 5793 5791 5788 5786 5784 5782 5780 5778 5775 5773 5771 5768 5766 5763 5761 5759
5854 5852 5850 5847 5845 5843 5841 5839 5836 5834 5831 5828 5826 5823 5820 5818 5815 5813 5810 5807 5805 5802 5800 5797 5795 5792 5789 5787 5784 5782 5780 5778 5776 5773 5771 5769 5766 5763 5761 5758 5755 5753 5750
5847 5845 5843 5842 5839 5837 5835 5833 5830 5827 5825 5822 5819 5817 5814 5812 5809 5806 5804 5801 5799 5796 5794 5791 5789 5786 5784 5781 5779 5776 5774 5771 5769 5766 5764 5761 5759 5756 5753 5750 5747 5745 5742
5839 5838 5836 5835 5833 5830 5828 5825 5822 5820 5817 5815 5812 5810 5808 5805 5803 5800 5798 5795 5792 5790 5787 5785 5782 5780 5777 5775 5772 5770 5767 5764 5762 5759 5756 5754 5751 5748 5745 5742 5738 5735 5733
5832 5830 5829 5827 5825 5822 5820 5817 5815 5812 5810 5808 5805 5803 5801 5798 5796 5794 5791 5788 5785 5783 5780 5778 5775 5773 5771 5768 5765 5763 5760 5758 5755 5752 5749 5746 5743 5739 5736 5733 5730 5727 5724
5824 5822 5821 5819 5817 5814 5812 5810 5807 5805 5802 5800 5798 5796 5794 5791 5789 5787 5784 5781 5778 5776 5773 5771 5768 5766 5764 5761 5759 5756 5753 5750 5747 5744 5741 5738 5734 5731 5728 5724 5721 5717 5714
5816 5814 5812 5810 5808 5806 5804 5802 5800 5798 5795 5793 5790 5788 5786 5784 5782 5779 5777 5773 5770 5768 5766 5764 5761 5759 5757 5754 5752 5749 5746 5743 5739 5736 5733 5730 5726 5723 5719 5716 5712 5708 5705
5807 5805 5803 5801 5799 5797 5796 5794 5792 5790 5788 5786 5783 5781 5778 5777 5774 5772 5769 5766 5763 5761 5759 5757 5754 5752 5749 5747 5744 5741 5738 5735 5731 5728 5725 5721 5718 5714 5711 5707 5703 5699 5696
5797 5796 5794 5792 5790 5788 5787 5785 5784 5782 5780 5778 5776 5773 5771 5769 5767 5764 5762 5759 5755 5753 5751 5749 5747 5744 5742 5739 5736 5733 5730 5727 5723 5720 5716 5713 5709 5705 5701 5698 5694 5691 5687
5788 5786 5785 5783 5781 5779 5778 5777 5775 5774 5772 5770 5768 5765 5763 5761 5759 5756 5754 5751 5749 5747 5745 5742 5739 5736 5734 5731 5728 5725 5722 5718 5715 5711 5708 5704 5700 5696 5692 5689 5685 5681 5678
5778 5777 5775 5774 5772 5771 5769 5768 5767 5765 5763 5761 5759 5757 5755 5753 5751 5749 5747 5744 5742 5739 5737 5734 5731 5728 5726 5723 5720 5717 5713 5710 5707 5703 5699 5696 5692 5688 5684 5680 5676 5673 5669
5769 5767 5766 5764 5763 5761 5760 5759 5757 5756 5753 5751 5749 5748 5746 5745 5743 5741 5739 5736 5734 5731 5729 5726 5723 5721 5718 5715 5711 5708 5705 5702 5698 5695 5691 5687 5683 5679 5676 5672 5668 5664 5660
5759 5758 5757 5755 5754 5752 5751 5750 5748 5746 5744 5742 5740 5739 5737 5736 5734 5732 5730 5728 5725 5723 5720 5718 5715 5712 5710 5706 5703 5700 5696 5693 5689 5686 5682 5679 5675 5671 5667 5664 5660 5656 5652
5750 5749 5748 5746 5745 5743 5742 5740 5739 5737 5736 5734 5732 5730 5729 5727 5726 5724 5721 5719 5717 5714 5712 5709 5706 5704 5701 5698 5694 5691 5688 5684 5681 5677 5674 5670 5667 5663 5659 5655 5651 5647 5643
5740 5739 5738 5737 5735 5734 5733 5732 5730 5728 5727 5725 5723 5722 5720 5719 5717 5715 5713 5711 5708 5705 5703 5700 5698 5695 5692 5689 5686 5683 5679 5676 5673 5669 5666 5662 5659 5655 5651 5647 5643 5639 5635
5731 5730 5729 5728 5726 5725 5724 5722 5721 5719 5718 5716 5714 5713 5711 5709 5707 5705 5703 5701 5699 5697 5694 5692 5689 5687 5684 5681 5677 5674 5671 5668 5664 5661 5658 5654 5651 5647 5643 5639 5635 5631 5627
5722 5721 5720 5719 5718 5716 5715 5714 5712 5711 5709 5707 5705 5703 5702 5700 5698 5696 5694 5692 5690 5688 5686 5683 5681 5678 5675 5672 5669 5666 5662 5659 5656 5653 5649 5646 5642 5638 5635 5631 5627 5623 5619